Regional Weather Roundup
Issued by NWS

Home | Current Version | Previous Version | Graphics & Text | Print | Product List | Glossary On
Versions: 1 2 3 4 5 6 7 8 9 10 11 12 13 14 15 16 17 18 19 20 21 22 23 24 25 26 27 28 29 30 31 32 33 34 35 36 37 38 39 40 41 42 43 44 45 46 47 48 49 50
000
ASUS43 KTOP 260108
RWRKS

WEATHER ROUNDUP FOR KANSAS
NATIONAL WEATHER SERVICE GOODLAND KS
800 PM CDT MON JUL 25 2016

NOTE:  "FAIR" INDICATES FEW OR NO CLOUDS BELOW 12,000 FEET WITH NO
SIGNIFICANT WEATHER AND/OR OBSTRUCTIONS TO VISIBILITY.

KSZ001>006-013>018-027>032-041>047-260200-
NORTHWEST KANSAS

CITY           SKY/WX    TMP DP  RH WIND       PRES   REMARKS
GOODLAND       SUNNY     80  62  54 S9        30.12R
HAYS           CLEAR     82  61  47 E13       30.05R
HILL CITY      CLEAR     83  66  56 E9        30.05R
RUSSELL        CLEAR     83  63  50 E10       30.03R
$$

KSZ061>065-074>080-084>089-260200-
SOUTHWEST KANSAS

CITY           SKY/WX    TMP DP  RH WIND       PRES   REMARKS
DODGE CITY     CLEAR     83  65  54 E10       30.06R
ELKHART          N/A     80  66  62 E6          N/A
GARDEN CITY    CLEAR     83  66  56 SE6       30.07R
GREAT BEND     CLEAR     82  64  54 E10       30.04R
LIBERAL        CLEAR     84  64  51 E8        30.08R
PRATT          CLEAR     80  65  60 E7        30.04R
$$

KSZ066>073-081>083-090>101-260200-
SOUTHEAST KANSAS

CITY           SKY/WX    TMP DP  RH WIND       PRES   REMARKS
CHANUTE        PTCLDY    80  73  79 NE9       30.01S
COFFEYVILLE    CLOUDY    81  71  71 NE10      30.00R
HUTCHINSON     CLEAR     82  69  64 E9        30.02S
MEDICINE LODGE   N/A     85  67  54 E13       30.00R
NEWTON         MOCLDY    78  72  81 E7        30.05R
PARSONS          N/A    N/A N/A N/A MISG      30.02R
WICHITA INTL   MOCLDY    82  69  64 NE15      30.02R
WICHITA JABRA  CLOUDY    81  71  71 NE12      30.02S
WICHITA MCCONL PTCLDY    82  69  64 E10       30.03R
WINFIELD       CLOUDY    83  72  69 NE15      30.02R
$$

KSZ007>012-019>026-033>040-048>060-102>105-260200-
NORTHEAST KANSAS

CITY           SKY/WX    TMP DP  RH WIND       PRES   REMARKS
CONCORDIA      CLEAR     79  67  66 SE7       30.04S
EMPORIA        CLOUDY    77  71  82 NE7       30.04R
LAWRENCE       CLOUDY    80  71  74 N5        30.03R
MANHATTAN      CLEAR     82  69  64 E7        30.03R
MARYSVILLE     CLEAR     81  64  57 E6        30.05R
OLATHE IND     PTCLDY    81  68  64 E5        30.04R
OLATHE EXE     CLOUDY    79  67  66 E6        30.04R
SALINA         CLEAR     83  71  67 NE9       30.03S
TOPEKA BILLARD PTCLDY    82  69  64 NE6       30.03R
TOPEKA FORBES  CLOUDY    80  68  66 NE3       30.04R
$$




USA.gov is the U.S. government's official web portal to all federal, state and local government web resources and services.